Weather in Zadar

Croatia     44°06′51″N   15°15′19″E
temp.,
°C
wind,
m/s
gust,
m/s
humid.,
%
clouds,
%
prec.,
mm/h
press.,
hPa
HPBL,
m
19 april, mon
mon1923:00+9ne456942 0.0 1016212
02:00+8ne336896 0.0 1015138
05:00+8nne336717 0.0 1015156
08:00+8nne346682 0.0 1015199
11:00+11nw345595 0.0 1015635
14:00+12wnw6659100 0.0 1014651
17:00+13nnw6657100 0.0 1013869
20:00+11nne556388 0.0 1014404
20 april, tue
tue2023:00+9nne236627 0.0 1015227
02:00+9nne226556 0.0 1015191
05:00+8nne226660 0.0 1015148
08:00+9ne226455 0.0 1015164
11:00+11wnw22597 0.0 1016431
14:00+12wnw446216 0.0 1016561
17:00+12nw45645 0.0 1015551
20:00+12nnw23705 0.0 1016270
21 april, wed
wed2123:00+12sw22717 0.0 1018343
02:00+11se11725 0.0 1018254
05:00+10ese347576 0.0 1018278
08:00+11ese567349 0.0 1019382
11:00+13se56705 0.0 1020629
14:00+13s65675 0.1 1020670
17:00+14sse54660 0.0 1019535
20:00+13se56745 0.0 1019383
22 april, thu
thu2223:00+13se688114 0.0 1020426
02:00+12ese587853 0.1 1020338
05:00+11ese5877100 0.0 1019319
08:00+12ese61072100 0.3 1020431
11:00+13se6776100 0.3 1020479
14:00+14se7871100 0.8 1019756
17:00+14se897999 0.4 1018624
20:00+13s568515 1.5 1017270
23 april, fri
fri2323:00+13se34855 0.0 1018186
02:00+12ese45855 0.1 1018225
05:00+12ese34845 0.0 1018200
08:00+12ne22775 0.0 1019118
11:00+15n34655 0.0 1019471
14:00+16n44614 0.0 1019424
17:00+16n55580 0.0 1019410
20:00+14ne34660 0.0 102162